UAL120 RJFK-RJFU

Flight info

Callsign UAL120
Flight time 0h 16m
Altitude 12000
Route SASIK KAZSA OLE
Aircraft B737/M-SDE2E3FGHIRWXY/LB1

Departure

Time 2026-04-26 18:35
Airport Kagoshima Airport (RJFK)

Arrival

Time 2026-04-26 18:51
Airport Nagasaki Airport (RJFU)
Time Latitude Longitude Altitude Speed Heading
2026-04-26 17:42 31.80262 130.71570 904 ft 0 kts 242°
2026-04-26 18:23 31.80268 130.71582 903 ft 4 kts 241°
2026-04-26 18:23 31.80282 130.71610 904 ft 4 kts 239°
2026-04-26 18:24 31.80293 130.71633 905 ft 3 kts 240°
2026-04-26 18:24 31.80307 130.71659 905 ft 4 kts 231°
2026-04-26 18:24 31.80325 130.71681 905 ft 4 kts 214°
2026-04-26 18:24 31.80341 130.71691 906 ft 0 kts 200°
2026-04-26 18:26 31.80340 130.71692 906 ft 1 kts 193°
2026-04-26 18:27 31.80334 130.71697 906 ft 2 kts 134°
2026-04-26 18:27 31.80312 130.71728 907 ft 7 kts 134°
2026-04-26 18:27 31.80271 130.71759 908 ft 7 kts 149°
2026-04-26 18:27 31.80260 130.71767 909 ft 0 kts 150°
2026-04-26 18:28 31.80257 130.71769 908 ft 4 kts 150°
2026-04-26 18:28 31.80203 130.71805 907 ft 12 kts 150°
2026-04-26 18:29 31.80127 130.71856 903 ft 13 kts 149°
2026-04-26 18:29 31.80042 130.71915 900 ft 16 kts 150°
2026-04-26 18:29 31.79933 130.71987 894 ft 21 kts 150°
2026-04-26 18:29 31.79800 130.72077 889 ft 22 kts 150°
2026-04-26 18:30 31.79679 130.72160 886 ft 20 kts 150°
2026-04-26 18:30 31.79563 130.72238 884 ft 19 kts 150°
2026-04-26 18:30 31.79450 130.72313 884 ft 18 kts 150°
2026-04-26 18:30 31.79351 130.72381 882 ft 15 kts 149°
2026-04-26 18:31 31.79279 130.72429 882 ft 9 kts 150°
2026-04-26 18:31 31.79240 130.72457 882 ft 5 kts 148°
2026-04-26 18:31 31.79229 130.72464 882 ft 1 kts 148°
2026-04-26 18:31 31.79173 130.72504 880 ft 13 kts 150°
2026-04-26 18:32 31.79121 130.72569 878 ft 9 kts 104°
2026-04-26 18:32 31.79129 130.72622 877 ft 4 kts 60°
2026-04-26 18:32 31.79133 130.72630 877 ft 0 kts 59°
2026-04-26 18:33 31.79133 130.72631 877 ft 2 kts 59°
2026-04-26 18:34 31.79166 130.72689 876 ft 12 kts 45°
2026-04-26 18:34 31.79285 130.72648 882 ft 45 kts 330°
2026-04-26 18:34 31.79801 130.72300 890 ft 123 kts 330°
2026-04-26 18:34 31.80693 130.71701 1166 ft 161 kts 332°
2026-04-26 18:35 31.81763 130.71072 1808 ft 183 kts 335°
2026-04-26 18:35 31.82974 130.70426 2566 ft 197 kts 340°
2026-04-26 18:35 31.84368 130.69907 3105 ft 219 kts 342°
2026-04-26 18:35 31.85853 130.69405 3942 ft 225 kts 343°
2026-04-26 18:36 31.87378 130.68899 4810 ft 231 kts 343°
2026-04-26 18:36 31.88914 130.68391 5709 ft 233 kts 342°
2026-04-26 18:36 31.90503 130.67861 6507 ft 244 kts 342°
2026-04-26 18:36 31.92222 130.67289 7142 ft 263 kts 342°
2026-04-26 18:37 31.94004 130.66697 8128 ft 269 kts 342°
2026-04-26 18:37 31.95823 130.66088 9145 ft 274 kts 340°
2026-04-26 18:37 31.97647 130.65372 10121 ft 278 kts 338°
2026-04-26 18:37 31.99528 130.64588 10671 ft 300 kts 337°
2026-04-26 18:38 32.01597 130.63723 10887 ft 330 kts 338°
2026-04-26 18:38 32.03831 130.62803 11426 ft 346 kts 338°
2026-04-26 18:38 32.06090 130.61880 11875 ft 349 kts 338°
2026-04-26 18:38 32.08411 130.60934 11999 ft 363 kts 338°
2026-04-26 18:39 32.10850 130.59936 11994 ft 375 kts 338°
2026-04-26 18:39 32.13316 130.58929 11998 ft 374 kts 338°
2026-04-26 18:39 32.15765 130.57931 11990 ft 372 kts 338°
2026-04-26 18:39 32.18206 130.56934 11999 ft 371 kts 338°
2026-04-26 18:40 32.20658 130.55931 11987 ft 372 kts 338°
2026-04-26 18:40 32.23102 130.54930 12000 ft 371 kts 338°
2026-04-26 18:40 32.25551 130.53926 11998 ft 373 kts 338°
2026-04-26 18:40 32.27999 130.52922 11996 ft 373 kts 338°
2026-04-26 18:41 32.30352 130.51762 11976 ft 370 kts 327°
2026-04-26 18:41 32.32359 130.49900 12006 ft 367 kts 317°
2026-04-26 18:41 32.34297 130.47925 12004 ft 368 kts 317°
2026-04-26 18:41 32.36241 130.45954 11992 ft 368 kts 317°
2026-04-26 18:42 32.38193 130.43987 11992 ft 368 kts 318°
2026-04-26 18:42 32.39485 130.42692 12002 ft 368 kts 318°
2026-04-26 18:42 32.41440 130.40736 11996 ft 368 kts 318°
2026-04-26 18:42 32.43397 130.38784 11991 ft 368 kts 318°
2026-04-26 18:43 32.45353 130.36834 11998 ft 367 kts 318°
2026-04-26 18:43 32.47306 130.34887 11988 ft 368 kts 318°
2026-04-26 18:43 32.49266 130.32932 12005 ft 366 kts 318°
2026-04-26 18:43 32.51850 130.30351 11996 ft 368 kts 318°
2026-04-26 18:44 32.53172 130.29030 11994 ft 368 kts 318°
2026-04-26 18:44 32.55104 130.27099 11998 ft 368 kts 318°
2026-04-26 18:44 32.57057 130.25146 11999 ft 368 kts 318°
2026-04-26 18:44 32.58982 130.23223 11981 ft 355 kts 318°
2026-04-26 18:45 32.60853 130.21362 11987 ft 349 kts 318°
2026-04-26 18:45 32.62724 130.19505 12006 ft 353 kts 318°
2026-04-26 18:45 32.64623 130.17658 11961 ft 350 kts 320°
2026-04-26 18:45 32.66535 130.15950 11855 ft 334 kts 322°
2026-04-26 18:46 32.68361 130.14363 11261 ft 321 kts 322°
2026-04-26 18:46 32.70166 130.12790 10542 ft 320 kts 322°
2026-04-26 18:46 32.71882 130.11283 10398 ft 295 kts 322°
2026-04-26 18:46 32.73471 130.09879 10253 ft 274 kts 322°
2026-04-26 18:47 32.74949 130.08566 10058 ft 255 kts 322°
2026-04-26 18:47 32.76287 130.07376 9604 ft 233 kts 322°
2026-04-26 18:47 32.77578 130.06226 8698 ft 231 kts 322°
2026-04-26 18:47 32.78847 130.05072 7853 ft 228 kts 320°
2026-04-26 18:48 32.79978 130.03886 7574 ft 204 kts 318°
2026-04-26 18:48 32.81026 130.02772 6671 ft 210 kts 319°
2026-04-26 18:48 32.82179 130.01595 5290 ft 229 kts 321°
2026-04-26 18:48 32.83431 130.00356 3849 ft 241 kts 319°
2026-04-26 18:49 32.84647 129.98963 2560 ft 242 kts 315°
2026-04-26 18:49 32.85770 129.97549 1801 ft 224 kts 316°
2026-04-26 18:49 32.86820 129.96357 1490 ft 194 kts 319°
2026-04-26 18:49 32.87789 129.95367 1147 ft 171 kts 321°
2026-04-26 18:50 32.88660 129.94529 680 ft 156 kts 323°
2026-04-26 18:50 32.89454 129.93742 398 ft 139 kts 320°
2026-04-26 18:50 32.90138 129.93002 171 ft 128 kts 321°
2026-04-26 18:50 32.90807 129.92293 35 ft 129 kts 321°
2026-04-26 18:51 32.91474 129.91580 18 ft 130 kts 320°
2026-04-26 18:51 32.91891 129.91137 17 ft 31 kts 335°
2026-04-26 18:51 32.92031 129.91238 17 ft 29 kts 102°
2026-04-26 18:51 32.91896 129.91406 18 ft 27 kts 139°
2026-04-26 18:52 32.91759 129.91552 19 ft 25 kts 138°
2026-04-26 18:52 32.91632 129.91688 18 ft 24 kts 138°
2026-04-26 18:52 32.91542 129.91784 19 ft 11 kts 137°
2026-04-26 18:52 32.91484 129.91846 20 ft 12 kts 138°
2026-04-26 18:53 32.91412 129.91923 18 ft 15 kts 138°
2026-04-26 18:53 32.91323 129.92018 19 ft 19 kts 138°
2026-04-26 18:53 32.91338 129.92135 19 ft 15 kts 48°
2026-04-26 18:53 32.91377 129.92187 20 ft 4 kts 48°
2026-04-26 18:54 32.91379 129.92190 20 ft 0 kts 48°